STARLINK-1542, 46073

Orbit data source: Space-Track

STARLINK-1542, 46073 is a payload satellite owned by SpaceX/Seattle (US) in LEO that was launched on Fri, 07 Aug 2020 UTC via an FALCON 9 launch vehicle from the Air Force Eastern Test Range (AFETR). Payloads include a variety of satellites, spacecraft, and rockets equipped with specific instruments for various scientific and technological missions. These include communications satellites like Starlink; space stations such as the ISS; scientific satellites like the Hubble; Earth observation satellites from companies like Planet Labs, Umbra, and HawkEye 360; GPS; miniature CubeSats for education and research; and military/defense satellites.

Loading next visibility...
STARLINK-1542 details
Identifier
46073, 2020-055AY
Orbit
LEO
Last TLE update5 hours ago
Origin
Flag of USSpaceX/Seattle (US)
ManufacturerSpaceX/Seattle
MissionOperational Commercial Communications
Bus & MotorSTARLINK, Unknown motor
Mass260 kg wet, ~248 kg dry
Launch date (UTC)
2020-08-07 (4 years ago)
Launch vehicle
FALCON 9
Launch site
Air Force Eastern Test Range (AFETR)
Object type
Payload
Rocket body
Debris
Shape & HBRBox + 1 Pan, 8.86 m
Radar Cross Section13.562 m², Large (>1 m²)

Expand to show TLE details & history

TLE from 5 hours ago
0 STARLINK-1542
1 46073U 20055AY  24361.45507160  .00013206  00000-0  90318-3 0  9992
2 46073  53.0539 263.9267 0002102  69.2968 290.8246 15.06426001242720
Epoch: 2024-12-26T10:55Z
Definitive object data (Epoch: 2024-12-26T10:55:18.186Z)
Latitude-0.00002°
Longitude4.66668°
Altitude547.494 km
Speed7.59 km/s
True Right ascension17h 35m 42s
True Declination0° 00' 00"
Sunlit
Object was in daylight at TLE epoch
Visualization TLE readout
Latitude-1.38949°
Longitude2.73478°
Altitude547.724 km
Speed7.589 km/s
Apparent Right ascension20h 24m 52s
Apparent Declination-45° 40' 07"
Sunlit
Object is in daylight
Visualization observer readout
Local Sidereal Time15:03:30
Azimuth132.162° SE
Elevation-21.66°
Doppler factor1
Orbital elements
Apogee altitude548.858 km
Perigee altitude545.947 km
Semi-major axis6,925.54 km
Eccentricity0.0002102
Inclination53.0539°
RAAN263.9267°
Arg. of periapsis69.2968°
True anomaly290.80208°
Mean anomaly290.8246°
Eccentric anomaly290.81334°
Mean motion3.76585 °/min
BSTAR0.00090318
Orbital period95.6 mins
Loading maneuver chart data...
Loading historical data...
Loading historical data...
Loading historical data...
Loading historical data...
Loading historical data...
Loading historical data...
Loading historical data...

STARLINK-1542 Visibility forecast

Observer location: undefined°, undefined

Span
Click to sort rows by Start time (UTC) header in descending order
Start Az.
Max El. time (UTC)
Max El. Az.
Max El.
End time (UTC)
End Az.
6 mins2024-12-26 20:40:27.403Z230.946° WSW2024-12-26 20:42:27.403Z241.916° WSW44.357°2024-12-26 20:46:27.403Z49.719° ENE
4 mins2024-12-26 22:21:27.403Z313.512° NW2024-12-26 22:22:27.403Z333.263° NNW19.436°2024-12-26 22:25:27.403Z24.897° NE
4 mins2024-12-27 01:42:27.403Z346.773° N2024-12-27 01:44:27.403Z25.343° NE19.83°2024-12-27 01:46:27.403Z61.443° ENE
6 mins2024-12-27 03:21:27.403Z309.707° NW2024-12-27 03:24:27.403Z134.209° SE44.657°2024-12-27 03:27:27.403Z131.162° SE
|